Location: Artiguedieu
(43.5000°N, 0.5454°E)
Time: 21:14:22
(UTC+00:00)

Vanguard 1 - Pass Details

Date: 31 July 2021
Orbit: 652 x 3831 km, 34.3° (Epoch: 19 September)

Event Time Altitude Azimuth Distance (km) Brightness Sun altitude
Rises 15:06:32 0° 267° (W) 4,017 13.9 44.1°
Reaches altitude 10° 15:09:03 10° 258° (WSW) 3,348 13.9 43.7°
Maximum altitude 15:16:51 36° 195° (SSW) 2,709 13.1 42.4°
Drops below altitude 10° 15:30:05 10° 137° (SE) 5,656 13.8 40.0°
Sets 15:35:58 0° 131° (SE) 7,151 14.2 39.0°
